Regional Weather Roundup
Issued by NWS State College, PA

Home | Current Version | Previous Version | Text Only | Print | Product List | Glossary On
Versions: 1 2 3 4 5 6 7 8 9 10 11 12 13 14 15 16 17 18 19 20 21 22 23 24 25 26 27 28 29 30 31 32 33 34 35 36 37 38 39 40 41 42 43 44 45 46 47 48 49 50
000
ASUS41 KCTP 231310
RWRCTP

REGIONAL WEATHER ROUNDUP
NATIONAL WEATHER SERVICE STATE COLLEGE PA
900 AM EDT SAT JUL 23 2016

Note: "fair" indicates few or no clouds below 12,000 feet with no
significant weather and/or obstructions to visibility.

* = STATION THAT DOES NOT REPORT PRECIPITATION /E.G. RAIN...SNOW...ETC/
    THUNDER OR FOG.

PAZ002>004-007>009-013>016-020>023-029>032-231400-
WESTERN PENNSYLVANIA

CITY           SKY/WX    TMP DP  RH WIND       PRES   REMARKS
ERIE           MOSUNNY   79  71  76 W5        29.98R
MEADVILLE      SUNNY     75  70  84 NW5       30.03R
FRANKLIN*      PTSUNNY   75  70  83 W7        30.04R
NEW CASTLE     FAIR      79  73  82 CALM      30.02S
BEAVER COUNTY  SUNNY     79  72  78 W3        30.02
BUTLER*        SUNNY     77  72  83 W7        30.04S
PITTSBURGH INT MOSUNNY   76  69  79 SW6       30.02S
PITTSBURGH     SUNNY     77  69  76 S5        30.02S
INDIANA*       CLOUDY    75  72  88 SW7G13    30.05F
LATROBE        CLOUDY    75  73  94 SW9       30.04S
WASHINGTON CO* MOSUNNY   75  70  83 CALM      30.05R
$$

PAZ004>006-010>012-017>019-024>028-033>037-041-042-045-046-049>053-231400-
CENTRAL PENNSYLVANIA

CITY           SKY/WX    TMP DP  RH WIND       PRES   REMARKS
BRADFORD       SUNNY     74  67  78 W3        30.03S
DUBOIS         CLOUDY    73  69  87 W8        30.03R FOG
CLEARFIELD     PTSUNNY   78  69  73 VRB5      30.01S
JOHNSTOWN      PTSUNNY   73  67  81 SW6       30.07R HAZE
ALTOONA        SUNNY     81  68  64 W12       30.02S
STATE COLLEGE  CLOUDY    77  70  78 SW12      29.99S
WILLIAMSPORT   SUNNY     82  68  62 W9        29.91F
SELINSGROVE    SUNNY     85  70  60 CALM      29.94S
FT INDIANTOWN  SUNNY     84  70  62 VRB1      29.93S
CAPITAL CITY   SUNNY     85  71  63 W8        29.93S
HARRISBURG     MOSUNNY   84  73  69 NW8       29.93R
YORK           SUNNY     83  71  67 W6        29.95S
$$

PAZ038>040-043-044-047-048-054-055-060>062-067>071-231400-
EASTERN PENNSYLVANIA

CITY           SKY/WX    TMP DP  RH WIND       PRES   REMARKS
SCRANTON       SUNNY     81  64  56 SW9       29.93S
MOUNT POCONO   SUNNY     74  32  21 W12       29.97S
ALLENTOWN      SUNNY     84  71  65 W7        29.91S
QUAKERTOWN*    SUNNY     84  72  65 CALM      29.93S
READING        SUNNY     86  69  56 W13G18    29.91S
LANCASTER      SUNNY     81  72  74 NW7       29.93S
COATESVILLE    SUNNY     82  73  74 VRB6      29.96S
POTTSTOWN      SUNNY     84  70  62 W6        29.93S
BLUE BELL      SUNNY     82  72  69 CALM      29.91S
DOYLESTOWN     SUNNY     83  70  64 W7        29.91S
WILLOW GROVE   NOT AVBL
NORTH PHILA    SUNNY     87  72  60 NW8       29.92S
PHILADELPHIA   MOSUNNY   86  70  58 W10       29.91S
$$




USA.gov is the U.S. government's official web portal to all federal, state and local government web resources and services.